This demonstration page uses our WeatherBlox Daily Observations layout. Learn more.

Left ArrowRight Arrow

38.80484, -77.04692

Hourly Observations for August 2, 2022

Temp ( °F °C ) Dew Point ( °F °C ) Humidity (%) Winds ( mph kmh ) Pressure ( in mb ) Visibility ( mi km ) Precip ( " mm )
12:16 am 00:16 Cloudy with Strong Thunderstorms 72 22.2 68 20 87 87 N 31 50 29.89 1012 1 1 0.20 5.08
12:24 am 00:24 Cloudy with Thunderstorms 76 24.4 67 19.4 74 74 WSW 5 7 29.89 1012 2 3 0.50 12.70
12:26 am 00:26 Cloudy with Thunderstorms 77 25 67 19.4 71 71 W 6 9 29.89 1012 4 6 0.50 12.70
12:33 am 00:33 Cloudy with Thunderstorms 76 24.4 68 20 77 77 SW 7 11 29.89 1012 10 16 0.50 12.70
12:47 am 00:47 Partly Cloudy 75 24 70 21 83 83 SSW 7 11 29.88 1012 10 16 0.50 12.70
12:52 am 00:52 Partly Cloudy 75 23.9 69 20.6 82 82 SSW 5 7 29.88 1012 10 16 0.50 12.70
1:52 am 01:52 Mostly Clear 75 23.9 71 21.7 88 88 SW 7 11 29.86 1011 10 16 0.00 0.00
2:52 am 02:52 Mostly Clear 75 23.9 71 21.7 88 88 SW 6 9 29.86 1011 10 16 0.00 0.00
3:52 am 03:52 Clear 76 24.4 72 22.2 88 88 Calm 29.86 1011 10 16 0.00 0.00
4:52 am 04:52 Partly Cloudy 76 24.4 73 22.8 91 91 SSE 3 6 29.85 1011 10 16 0.00 0.00
5:52 am 05:52 Mostly Cloudy 76 24.4 71 21.7 85 85 SSW 7 11 29.88 1012 10 16 0.00 0.00
6:52 am 06:52 Mostly Cloudy 77 25 71 21.7 82 82 WNW 3 6 29.89 1012 10 16 0.00 0.00
7:52 am 07:52 Mostly Cloudy 79 26.1 71 21.7 77 77 W 7 11 29.90 1013 10 16 0.00 0.00
8:52 am 08:52 Mostly Cloudy 82 27.8 70 21.1 67 67 W 5 7 29.90 1013 10 16 0.00 0.00
9:52 am 09:52 Partly Cloudy 85 29.4 70 21.1 61 61 WNW 7 11 29.91 1013 10 16 0.00 0.00
10:52 am 10:52 Partly Cloudy 87 30.6 69 20.6 55 55 W 12 19 29.90 1013 10 16 0.00 0.00
11:52 am 11:52 Mostly Cloudy 88 31.1 68 20 52 52 W 13 20 29.90 1013 10 16 0.00 0.00
12:52 pm 12:52 Partly Cloudy 89 31.7 68 20 50 50 W 13 20 29.89 1012 10 16 0.00 0.00
1:52 pm 13:52 Partly Cloudy 91 32.8 67 19.4 45 45 W 8 13 29.88 1012 10 16 0.00 0.00
2:52 pm 14:52 Mostly Cloudy 90 32.2 65 18.3 44 44 WNW 8 13 29.87 1012 10 16 0.00 0.00
3:52 pm 15:52 Mostly Cloudy 91 32.8 67 19.4 45 45 NW 14 22 29.87 1012 10 16 0.00 0.00
4:52 pm 16:52 Mostly Cloudy 89 31.7 65 18.3 45 45 N 10 17 29.87 1011 10 16 0.00 0.00
5:52 pm 17:52 Partly Cloudy 92 33.3 63 17.2 38 38 NW 12 19 29.87 1011 10 16 0.00 0.00
6:52 pm 18:52 Partly Cloudy 91 32.8 61 16.1 37 37 WNW 13 20 29.87 1012 10 16 0.00 0.00
7:52 pm 19:52 Partly Cloudy 89 31.7 62 16.7 41 41 W 8 13 29.88 1012 10 16 0.00 0.00
8:52 pm 20:52 Partly Cloudy 87 30.6 63 17.2 45 45 WNW 7 11 29.89 1012 10 16 0.00 0.00
9:52 pm 21:52 Partly Cloudy 84 28.9 64 17.8 51 51 NNW 7 11 29.92 1013 10 16 0.00 0.00
10:52 pm 22:52 Mostly Clear 83 28.3 64 17.8 53 53 NNW 7 11 29.93 1014 10 16 0.00 0.00
11:52 pm 23:52 Clear 80 26.7 65 18.3 60 60 N 5 7 29.94 1014 10 16 0.00 0.00

Powered by AerisWeather